Location: Cottbus
(51.7000°N, 14.3000°E)
Time: 21:37:22
(UTC+02:00)

X-37B - Visible Passes

Search period start: 19 October 2021 00:00
Search period end: 29 October 2021 00:00
Orbit: 385 x 389 km, 45.0° (Epoch: 17 October)

Date Brightness Start Highest point End Pass type
(mag) Time Alt. Az. Time Alt. Az. Time Alt. Az.
19 Oct 2.1 19:50:17 10° WSW 19:52:56 24° S 19:53:04 24° S visible
20 Oct 2.3 18:52:08 10° SW 18:54:44 23° S 18:57:16 10° ESE visible
20 Oct 3.2 20:28:22 10° WSW 20:29:33 16° SW 20:29:33 16° SW visible
21 Oct 2.3 19:30:02 10° WSW 19:32:39 23° S 19:33:45 19° SSE visible
22 Oct 2.4 18:31:48 10° WSW 18:34:28 24° S 18:37:07 10° ESE visible
22 Oct 3.0 20:08:22 10° WSW 20:10:16 17° SSW 20:10:16 17° SSW visible
23 Oct 2.7 19:09:53 10° WSW 19:12:20 21° SSW 19:14:33 11° SE visible
24 Oct 3.3 19:48:40 10° SW 19:50:07 13° SSW 19:51:11 11° S visible
25 Oct 3.1 18:49:53 10° WSW 18:52:01 17° SSW 18:54:08 10° SSE visible
27 Oct 3.5 18:30:12 10° SW 18:31:39 12° SSW 18:33:05 10° S visible
